FW2894 Weather Reports


time (UTC)temp
F
wind
direction
speed
knots
gust
knots
rain 1hr
in
rain 24hr
in
rain mn
in
humidity
%
barometer
mb
20210920035819 74 183 7.8 13.0 0.00 0.00 0.00 51 1004.6
20210920034313 75 142 7.0 11.3 0.00 0.00 0.00 50 1004.6
20210920032809 75 173 7.8 12.2 0.00 0.00 0.00 49 1004.6
20210920031308 76 182 7.8 15.6 0.00 0.00 0.00 47 1004.7
20210920024320 76 165 7.0 13.0 0.00 0.00 0.00 46 1004.8
20210920021311 77 155 8.7 13.0 0.00 0.00 0.00 45 1004.5
20210920014314 78 170 7.8 11.3 0.00 0.00 0.00 43 1004.6
20210920011321 80 162 7.0 11.3 0.00 0.00 0.00 39 1004.3
20210920004316 81 148 7.8 14.8 0.00 0.00 0.00 38 1004.4
20210920002812 82 156 8.7 13.9 0.00 0.00 0.00 35 1004.5
20210919235820 84 176 8.7 19.1 0.00 0.00 0.00 34 1004.8
20210919234319 85 191 11.3 17.4 0.00 0.00 0.00 33 1004.6
20210919232812 85 157 7.8 16.5 0.00 0.00 0.00 33 1004.9
20210919231309 86 166 9.6 19.1 0.00 0.00 0.00 32 1005.0
20210919225808 86 243 11.3 21.7 0.00 0.00 0.00 32 1005.1
20210919222822 87 203 13.9 21.7 0.00 0.00 0.00 30 1005.1
20210919221315 88 179 11.3 16.5 0.00 0.00 0.00 29 1005.3
20210919214352 89 155 13.0 25.2 0.00 0.00 0.00 28 1005.5
20210919212825 89 159 13.9 20.9 0.00 0.00 0.00 27 1005.5
20210919211319 90 176 13.9 21.7 0.00 0.00 0.00 25 1005.6
20210919205808 90 162 12.2 22.6 0.00 0.00 0.00 25 1005.7
20210919202823 89 167 15.6 21.7 0.00 0.00 0.00 27 1006.2
20210919201312 88 151 12.2 26.9 0.00 0.00 0.00 32 1006.4
20210919195809 88 165 13.0 26.1 0.00 0.00 0.00 30 1006.8
20210919192820 88 165 12.2 23.5 0.00 0.00 0.00 28 1007.5
20210919185813 87 158 12.2 25.2 0.00 0.00 0.00 31 1007.8
20210919182822 86 173 11.3 20.9 0.00 0.00 0.00 33 1008.0
20210919181321 86 165 10.4 22.6 0.00 0.00 0.00 36 1008.2
20210919174314 84 200 12.2 20.9 0.00 0.00 0.00 37 1008.8
20210919171324 83 196 8.7 20.9 0.00 0.00 0.00 39 1009.6
20210919165815 82 148 8.7 20.9 0.00 0.00 0.00 39 1010.0
20210919162816 80 233 9.6 16.5 0.00 0.00 0.00 43 1010.8
20210919161309 80 206 8.7 15.6 0.00 0.00 0.00 44 1010.9
20210919154324 76 178 7.8 14.8 0.00 0.00 0.00 48 1011.2
20210919152814 76 169 7.0 18.2 0.00 0.00 0.00 48 1011.1
20210919151310 75 186 6.1 13.0 0.00 0.00 0.00 49 1011.1
20210919145808 75 175 7.0 14.8 0.00 0.00 0.00 49 1011.2
20210919144306 75 194 7.0 12.2 0.00 0.00 0.00 50 1011.4
20210919141320 71 161 6.1 13.9 0.00 0.00 0.00 52 1011.6
20210919134315 68 171 5.2 10.4 0.00 0.00 0.00 54 1011.9
20210919131320 66 194 7.0 10.4 0.00 0.00 0.00 58 1012.1
20210919125816 65 159 6.1 13.9 0.00 0.00 0.00 58 1012.2
20210919124312 65 148 5.2 13.0 0.00 0.00 0.00 59 1012.3
20210919122812 65 194 6.1 11.3 0.00 0.00 0.00 60 1012.3
20210919115825 66 190 6.1 9.6 0.00 0.00 0.00 60 1012.3
20210919114315 66 170 6.1 12.2 0.00 0.00 0.00 60 1012.5
20210919111314 66 172 5.2 9.6 0.00 0.00 0.00 60 1012.8
20210919104327 66 174 6.1 11.3 0.00 0.00 0.00 60 1012.8
20210919102818 66 169 5.2 10.4 0.00 0.00 0.00 60 1013.1
20210919101315 67 171 5.2 10.4 0.00 0.00 0.00 60 1013.2
20210919095810 67 184 7.0 13.0 0.00 0.00 0.00 60 1013.3
20210919092814 67 184 4.3 12.2 0.00 0.00 0.00 60 1013.8
20210919091308 67 180 4.3 7.8 0.00 0.00 0.00 60 1013.9
20210919084319 68 176 3.5 9.6 0.00 0.00 0.00 60 1014.4
20210919082817 68 176 6.1 10.4 0.00 0.00 0.00 60 1014.6
20210919075821 69 185 6.1 10.4 0.00 0.00 0.00 59 1014.7
20210919072820 69 214 5.2 10.4 0.00 0.00 0.00 58 1014.8
20210919065811 69 201 6.1 10.4 0.00 0.00 0.00 58 1015.0
20210919062825 69 164 5.2 10.4 0.00 0.00 0.00 57 1015.0
20210919061315 70 165 6.1 13.0 0.00 0.00 0.00 57 1015.1
20210919055812 70 165 6.1 12.2 0.00 0.00 0.00 56 1015.2
20210919052821 70 159 6.1 10.4 0.00 0.00 0.00 56 1015.0
20210919045823 70 167 7.0 10.4 0.00 0.00 0.00 55 1015.0
20210919042820 70 198 5.2 10.4 0.00 0.00 0.00 55 1015.3